This demonstration page uses our WeatherBlox Daily Observations layout. Learn more.

Left ArrowRight Arrow

38.88101, -77.10428

Hourly Observations for August 21, 2018

Temp ( °F °C ) Dew Point ( °F °C ) Humidity (%) Winds ( mph kmh ) Pressure ( in mb ) Visibility ( mi km ) Precip ( " mm )
12:00 am 00:00 Cloudy 76 24.4 69 20.6 79 79 ESE 9 15 30.09 1019 10 16 0.00 0.00
12:45 am 00:45 Cloudy 75 23.9 69 20.6 82 82 ESE 6 9 30.09 1019 10 16 0.00 0.00
12:52 am 00:52 Cloudy 75 23.9 69 20.6 82 82 E 7 11 30.09 1019 10 16 0.00 0.00
1:08 am 01:08 Cloudy 75 23.9 69 20.6 82 82 ESE 8 13 30.09 1019 10 16 0.00 0.00
1:17 am 01:17 Cloudy 75 23.9 69 20.6 82 82 E 7 11 30.09 1019 10 16 0.00 0.00
2:52 am 02:52 Cloudy 75 23.9 69 20.6 82 82 E 6 9 30.06 1018 10 16 0.00 0.00
3:22 am 03:22 Cloudy 75 23.9 69 20.6 82 82 E 6 9 30.06 1018 10 16 0.00 0.00
3:52 am 03:52 Cloudy 76 24.4 69 20.6 79 79 E 6 9 30.04 1017 10 16 0.00 0.00
4:19 am 04:19 Cloudy 76 24.4 69 20.6 79 79 E 7 11 30.03 1017 10 16 0.00 0.00
4:52 am 04:52 Cloudy 76 24.4 69 20.6 79 79 ESE 5 7 30.04 1017 10 16 0.00 0.00
5:41 am 05:41 Cloudy 76 24.4 69 20.6 79 79 E 6 9 30.03 1017 10 16 0.00 0.00
5:52 am 05:52 Cloudy 76 24.4 69 20.6 79 79 E 9 15 30.03 1017 10 16 0.00 0.00
6:52 am 06:52 Cloudy 76 24.4 69 20.6 79 79 ESE 9 15 30.02 1017 10 16 0.00 0.00
7:52 am 07:52 Cloudy 76 24.4 70 21.1 82 82 SE 9 15 30.03 1017 10 16 0.00 0.00
8:12 am 08:12 Cloudy 76 24.4 70 21.1 82 82 ESE 6 9 30.03 1017 10 16 0.00 0.00
8:34 am 08:34 Cloudy 77 25 70 21.1 79 79 ESE 7 11 30.03 1017 10 16 0.00 0.00
8:44 am 08:44 Cloudy 77 25 70 21.1 79 79 ESE 6 9 30.03 1017 10 16 0.00 0.00
8:52 am 08:52 Cloudy 77 25 70 21.1 79 79 ESE 7 11 30.02 1017 10 16 0.00 0.00
9:52 am 09:52 Cloudy with Light Rain 78 25.6 71 21.7 79 79 SE 9 15 30.01 1016 8 13 0.01 0.25
10:52 am 10:52 Cloudy 79 26.1 73 22.8 82 82 SE 13 20 29.99 1016 10 16 0.01 0.25
11:52 am 11:52 Cloudy 80 26.7 74 23.3 82 82 SE 10 17 29.97 1015 10 16 0.00 0.03
12:45 pm 12:45 Cloudy with Thunderstorms 80 26.7 73 22.8 79 79 SE 14 22 29.94 1014 10 16 0.00 0.03
12:52 pm 12:52 Cloudy with Thunderstorms 80 26.7 73 22.8 79 79 SE 12 19 29.95 1014 10 16 0.00 0.03
1:01 pm 13:01 Cloudy with Thunderstorms 79 26.1 73 22.8 82 82 SSE 16 26 29.97 1015 4 6 0.00 0.03
1:03 pm 13:03 Cloudy with Strong Thunderstorms 79 26.1 73 22.8 82 82 SSE 15 24 29.97 1015 2 3 0.02 0.51
1:05 pm 13:05 Cloudy with Strong Thunderstorms 78 25.6 73 22.8 85 85 SSE 14 22 29.97 1015 1 1 0.08 2.03
1:08 pm 13:08 Cloudy with Strong Thunderstorms 77 25 73 22.8 88 88 SSE 9 15 29.97 1015 1 1 0.18 4.57
1:21 pm 13:21 Cloudy with Strong Thunderstorms 76 24.4 73 22.8 91 91 S 3 6 29.97 1015 1 2 0.46 11.68
1:31 pm 13:31 Cloudy with Thunderstorms 76 24.4 73 22.8 91 91 Calm 29.97 1015 2 3 0.58 14.73
1:37 pm 13:37 Cloudy with Strong Thunderstorms 76 24.4 73 22.8 91 91 Calm 29.97 1015 2 3 0.60 15.24
1:49 pm 13:49 Cloudy with Strong Thunderstorms 75 24 73 23 94 94 NNE 3 6 29.97 1015 2 2 0.66 16.76
1:52 pm 13:52 Cloudy with Strong Thunderstorms 76 24.4 73 22.8 91 91 N 8 13 29.96 1015 2 2 0.73 18.54
1:54 pm 13:54 Cloudy with Strong Thunderstorms 76 24.4 73 22.8 91 91 NNE 9 15 29.97 1015 1 2 0.04 1.02
2:00 pm 14:00 Cloudy with Strong Thunderstorms 73 22.8 70 21.1 90 90 ENE 10 17 29.97 1015 1 1 0.20 5.08
2:08 pm 14:08 Cloudy with Strong Thunderstorms 73 22.8 71 21.7 94 94 NE 10 17 29.94 1014 1 1 0.34 8.64
2:18 pm 14:18 Cloudy with Thunderstorms 75 23.9 72 22.2 90 90 NNE 9 15 29.94 1014 1 2 0.53 13.46
2:38 pm 14:38 Cloudy with Strong Thunderstorms 76 24.4 73 22.8 91 91 NE 13 20 29.94 1014 1 1 0.90 22.86
2:44 pm 14:44 Cloudy with Heavy Rain 76 24.4 74 23.3 94 94 ENE 8 13 29.94 1014 1 1 1.09 27.69
2:52 pm 14:52 Mostly Cloudy with Heavy Rain 76 24.4 74 23.3 94 94 E 9 15 29.92 1013 2 2 1.17 29.72
2:58 pm 14:58 Cloudy with Light Rain 77 25 74 23.3 90 90 ESE 12 19 29.91 1013 4 6 0.03 0.76
3:06 pm 15:06 Cloudy with Light Rain 77 25 74 23.3 90 90 ESE 7 11 29.91 1013 10 16 0.03 0.76
3:13 pm 15:13 Cloudy with Light Rain 78 25.6 74 23.3 87 87 ESE 9 15 29.91 1013 10 16 0.03 0.76
3:52 pm 15:52 Cloudy 79 26.1 73 22.8 82 82 ESE 10 17 29.89 1012 10 16 0.03 0.76
4:52 pm 16:52 Mostly Cloudy with Nearby Thunderstorms 80 26.7 74 23.3 82 82 SSE 6 9 29.87 1012 10 16 0.00 0.00
4:59 pm 16:59 Mostly Cloudy with Thunderstorms 81 27.2 74 23.3 79 79 SE 7 11 29.88 1012 10 16 0.00 0.00
5:34 pm 17:34 Mostly Cloudy with Thunderstorms 81 27.2 75 23.9 82 82 SSE 7 11 29.88 1012 10 16 0.00 0.00
5:52 pm 17:52 Mostly Cloudy with Nearby Thunderstorms 82 27.8 75 23.9 79 79 SE 7 11 29.86 1011 10 16 0.00 0.00
5:55 pm 17:55 Mostly Cloudy with Nearby Thunderstorms 82 27.8 75 23.9 79 79 SSE 6 9 29.85 1011 10 16 0.00 0.00
6:14 pm 18:14 Mostly Cloudy with Thunderstorms 82 27.8 75 23.9 79 79 SE 6 9 29.85 1011 10 16 0.00 0.00
6:35 pm 18:35 Mostly Cloudy with Nearby Thunderstorms 82 27.8 75 23.9 79 79 SE 9 15 29.85 1011 10 16 0.00 0.00
6:39 pm 18:39 Mostly Cloudy 81 27.2 74 23.3 79 79 SE 9 15 29.85 1011 10 16 0.00 0.00
6:52 pm 18:52 Mostly Cloudy with Light Rain 81 27.2 74 23.3 79 79 SE 7 11 29.85 1011 10 16 0.00 0.03
7:03 pm 19:03 Mostly Cloudy with Light Rain 81 27.2 75 23.9 82 82 SE 8 13 29.85 1011 10 16 0.00 0.03
7:45 pm 19:45 Cloudy with Thunderstorms 79 26.1 75 23.9 88 88 SSE 7 11 29.88 1012 10 16 0.01 0.25
7:48 pm 19:48 Cloudy with Thunderstorms 79 26 75 24 89 89 SE 12 19 29.88 1012 3 5 0.01 0.25
7:52 pm 19:52 Cloudy with Thunderstorms 79 26.1 74 23.3 85 85 SSE 18 30 29.87 1012 3 5 0.01 0.25
7:54 pm 19:54 Windy with Storms Likely 78 25.6 74 23.3 87 87 S 31 50 29.88 1012 2 2 0.00 0.03
7:58 pm 19:58 Cloudy with Strong Thunderstorms 76 24.4 72 22.2 88 88 S 22 35 29.88 1012 1 2 0.13 3.30
8:02 pm 20:02 Cloudy with Strong Thunderstorms 75 23.9 72 22.2 90 90 S 23 37 29.88 1012 1 2 0.18 4.57
8:05 pm 20:05 Cloudy with Strong Thunderstorms 75 23.9 72 22.2 90 90 S 21 33 29.88 1012 2 3 0.19 4.83
8:13 pm 20:13 Cloudy with Strong Thunderstorms 75 23.9 72 22.2 90 90 S 16 26 29.88 1012 3 5 0.26 6.60
8:16 pm 20:16 Cloudy with Strong Thunderstorms 75 23.9 72 22.2 90 90 S 14 22 29.88 1012 3 5 0.28 7.11
8:52 pm 20:52 Cloudy with Light Rain 76 24.4 73 22.8 91 91 SSW 7 11 29.88 1012 5 8 0.43 10.92
8:58 pm 20:58 Cloudy with Rain 76 24.4 72 22.2 88 88 VRB 3 6 29.88 1012 8 13 0.01 0.25
9:52 pm 21:52 Cloudy 76 24.4 72 22.2 88 88 S 6 9 29.86 1011 10 16 0.01 0.25
10:17 pm 22:17 Mostly Cloudy 76 24.4 72 22.2 88 88 SSW 8 13 29.88 1012 10 16 0.00 0.00
10:23 pm 22:23 Mostly Cloudy 76 24.4 72 22.2 88 88 S 7 11 29.88 1012 10 16 0.00 0.00
10:29 pm 22:29 Mostly Cloudy 76 24.4 72 22.2 88 88 S 6 9 29.85 1011 10 16 0.00 0.00
10:32 pm 22:32 Mostly Cloudy 76 24.4 73 22.8 91 91 S 7 11 29.85 1011 10 16 0.00 0.00
10:42 pm 22:42 Mostly Cloudy 76 24.4 73 22.8 91 91 S 7 11 29.85 1011 10 16 0.00 0.00
10:52 pm 22:52 Cloudy 76 24.4 73 22.8 91 91 S 9 15 29.85 1011 10 16 0.00 0.00
11:37 pm 23:37 Cloudy 77 25 73 22.8 88 88 SW 6 9 29.85 1011 10 16 0.00 0.00
11:52 pm 23:52 Cloudy 77 25 73 22.8 88 88 WSW 5 7 29.85 1011 10 16 0.00 0.00

Powered by AerisWeather